Waarnemingen

Advertentie
Mijn weer
Arkona, Duitsland (10091): temperatuur & dauwpunt: 16.02.2017 11:00:00 - 22.02.2017 11:00:00 (CET)Arkona, Duitsland (10091): temperatuur 5cm & temperatuur -5cm: 16.02.2017 11:00:00 - 22.02.2017 11:00:00 (CET)Arkona, Duitsland (10091): temperatuur -20cm & temperatuur -100cm: 16.02.2017 11:00:00 - 22.02.2017 11:00:00 (CET)Arkona, Duitsland (10091): water temperatuur: 16.02.2017 11:00:00 - 22.02.2017 11:00:00 (CET)Arkona, Duitsland (10091): windsnelheid & windstoten: 16.02.2017 11:00:00 - 22.02.2017 11:00:00 (CET)Arkona, Duitsland (10091): windrichting: 16.02.2017 11:00:00 - 22.02.2017 11:00:00 (CET)Arkona, Duitsland (10091): luchtdruk: 16.02.2017 11:00:00 - 22.02.2017 11:00:00 (CET)Arkona, Duitsland (10091): zicht: 16.02.2017 11:00:00 - 22.02.2017 11:00:00 (CET)Arkona, Duitsland (10091): Zonneschijnduur: 16.02.2017 11:00:00 - 22.02.2017 11:00:00 (CET)Arkona, Duitsland (10091): neerslag: 16.02.2017 11:00:00 - 22.02.2017 11:00:00 (CET)
Datum & Tijd tt [°C] td [°C] tt 5cm [°C] tt -5cm [°C] tt -20cm [°C] tt -100cm [°C] tw [°C] ff [km/u] ff [kn] fx [km/u] fx [kn] dd ppp [hPa] vv [km] sd [min] rr [mm]
22.02.2017 11:00:00 6,1 5,4 6,1 5,7 4,0 4,1 3,0 61 33 77 42 W 991,2 13 0 0,0
22.02.2017 10:00:00 6,3 5,6 6,4 5,5 3,8 4,1 3,0 62 33 82 45 W 991,1 14 0 0,0
22.02.2017 09:00:00 6,8 6,0 6,5 5,1 3,6 4,1 3,0 62 33 79 43 W 991,1 10 0 0,9
22.02.2017 08:00:00 6,9 6,4 6,6 4,4 3,5 4,1 3,0 52 28 71 39 WZW 991,2 6 0 1,8
22.02.2017 07:00:00 5,5 5,1 5,2 3,7 3,4 4,1 3,0 45 25 66 36 ZW 991,7 5 0 1,2
22.02.2017 06:00:00 4,4 3,8 4,2 3,3 3,4 4,1 3,0 52 28 63 34 ZZW 993,0 5 0 2,5
22.02.2017 05:00:00 3,5 2,6 3,2 2,9 3,4 4,1 3,0 35 19 50 27 ZZW 995,8 2,6 0 0,5
22.02.2017 04:00:00 3,5 1,9 3,3 2,6 3,5 4,1 3,0 32 17 44 24 ZZW 998,6 17 0 0,0
22.02.2017 03:00:00 3,4 2,0 2,9 2,4 3,5 4,1 3,0 31 17 39 21 ZZW 1001,3 16 0 0,0
22.02.2017 02:00:00 3,1 1,9 2,7 2,4 3,6 4,1 3,0 31 17 41 22 ZW 1003,4 16 0 0,0
22.02.2017 01:00:00 3,1 2,0 2,1 2,5 3,7 4,1 3,0 29 15 46 25 WZW 1004,9 13 0 0,0
22.02.2017 00:00:00 3,4 2,1 2,8 2,9 3,8 4,0 3,0 39 21 55 30 WZW 1005,8 11 0 0,0
21.02.2017 23:00:00 3,8 2,1 3,2 2,7 3,9 4,0 3,0 45 24 61 33 W 1006,2 16 0 0,0
21.02.2017 22:00:00 3,9 2,0 3,2 2,8 4,1 4,0 3,0 46 25 59 32 W 1006,3 18 0 0,0
21.02.2017 21:00:00 4,0 1,8 3,2 3,0 4,2 4,0 3,0 46 25 61 33 W 1006,2 18 0 0,0
21.02.2017 20:00:00 4,2 1,9 3,4 3,2 4,3 4,0 3,1 45 24 60 33 W 1006,2 18 0 0,0
21.02.2017 19:00:00 4,4 1,8 3,6 3,4 4,5 4,0 3,1 43 23 56 30 W 1005,7 20 0 0,0
21.02.2017 18:00:00 4,8 1,5 3,9 3,9 4,6 4,0 3,1 44 24 55 30 W 1005,0 22 0 0,0
21.02.2017 17:00:00 4,8 1,7 4,4 4,6 4,7 4,0 3,1 44 24 60 33 W 1004,2 17 53 0,0
21.02.2017 16:00:00 5,5 2,0 5,7 5,5 4,6 4,0 3,1 50 27 68 37 W 1003,4 10 60 0,0
21.02.2017 15:00:00 5,4 2,3 5,8 5,6 4,6 4,0 3,1 51 28 74 40 W 1002,9 16 47 0,0
21.02.2017 14:00:00 5,3 2,3 5,9 6,3 4,4 4,0 3,1 54 29 71 38 W 1002,6 15 53 0,0
21.02.2017 13:00:00 5,4 2,3 6,1 6,1 4,3 3,9 3,1 58 31 76 41 W 1002,2 12 60 0,0
21.02.2017 12:00:00 5,4 2,5 6,3 5,6 4,1 3,9 3,0 60 33 78 42 W 1001,6 9 59 0,0
21.02.2017 11:00:00 5,2 2,6 5,7 4,7 4,1 3,9 3,0 58 32 74 40 W 1001,3 10 25 0,0
21.02.2017 10:00:00 5,0 2,5 4,9 4,4 4,1 3,9 3,0 59 32 72 39 W 1001,0 15 2 0,0
21.02.2017 09:00:00 4,9 2,6 4,7 4,0 4,1 3,9 3,0 57 31 72 39 W 1000,7 16 0 0,0
21.02.2017 08:00:00 4,8 2,6 4,4 3,9 4,2 3,9 3,0 55 30 72 39 W 1000,4 15 0 0,0
21.02.2017 07:00:00 4,6 2,8 4,3 4,0 4,3 3,9 3,0 60 32 76 41 W 999,9 16 0 0,0
21.02.2017 06:00:00 4,8 3,2 4,4 4,1 4,3 3,9 3,0 59 32 79 43 W 999,4 18 0 0,0
21.02.2017 05:00:00 5,0 3,3 4,8 4,3 4,4 3,9 3,0 60 32 74 40 W 999,4 17 0 0,0
21.02.2017 04:00:00 5,5 3,2 4,9 4,4 4,5 3,9 3,0 56 31 71 39 W 999,2 23 0 0,0
21.02.2017 03:00:00 5,5 3,8 4,9 4,7 4,5 3,9 3,0 52 28 74 40 W 999,5 25 0 0,0
21.02.2017 02:00:00 5,3 4,1 4,9 4,8 4,6 3,9 3,0 57 31 72 39 W 999,6 15 0 0,0
21.02.2017 01:00:00 5,0 3,8 4,9 5,0 4,6 3,8 3,0 54 29 76 41 W 999,5 24 0 0,0
21.02.2017 00:00:00 5,6 4,5 5,3 5,4 4,6 3,8 3,0 60 32 79 43 W 998,6 20 0 0,0
20.02.2017 23:00:00 6,5 5,4 6,2 5,6 4,6 3,8 3,0 61 33 81 44 W 998,2 19 0 0,0
20.02.2017 22:00:00 6,2 5,7 6,0 5,6 4,5 3,8 3,0 65 35 95 51 W 997,9 4,6 0 0,0
20.02.2017 21:00:00 5,9 5,5 5,8 5,6 4,5 3,8 3,1 69 37 87 47 W 997,6 4,6 0 0,0
20.02.2017 20:00:00 6,4 5,8 6,2 5,8 4,4 3,8 3,1 64 35 81 44 W 997,8 4,6 0 0,1
20.02.2017 19:00:00 6,5 6,1 6,3 5,8 4,4 3,8 3,0 63 34 82 44 W 998,5 2,5 0 0,2
20.02.2017 18:00:00 6,8 6,3 6,7 5,8 4,3 3,8 3,0 64 34 81 44 WZW 998,8 5 0 0,0
20.02.2017 17:00:00 6,8 6,5 6,7 5,8 4,2 3,8 3,0 58 32 82 44 WZW 999,7 2,9 0 0,0
20.02.2017 16:00:00 6,7 6,1 6,5 5,7 4,1 3,8 3,0 63 34 78 42 WZW 1000,7 6 0 0,0
20.02.2017 15:00:00 6,2 5,7 6,1 5,6 4,0 3,8 3,0 55 30 73 39 WZW 1001,3 4,5 0 0,0
20.02.2017 14:00:00 6,2 5,8 6,1 5,6 3,9 3,8 3,0 57 31 77 42 WZW 1002,3 2,0 0 0,0
20.02.2017 13:00:00 6,0 5,6 6,1 5,5 3,7 3,8 3,0 53 29 74 40 WZW 1003,0 1,6 0 0,2
20.02.2017 12:00:00 6,2 5,5 6,2 5,3 3,6 3,8 3,0 52 28 70 38 WZW 1004,1 3,5 0 0,1
20.02.2017 11:00:00 6,0 5,1 5,7 4,8 3,5 3,8 3,0 51 28 69 38 WZW 1005,0 5 0 0,1
20.02.2017 10:00:00 5,6 4,7 5,4 4,4 3,4 3,7 3,0 48 26 61 33 WZW 1006,3 6 0 0,4
20.02.2017 09:00:00 5,2 3,7 5,0 4,0 3,4 3,7 3,0 47 25 58 32 WZW 1007,6 14 0 0,0
20.02.2017 08:00:00 4,9 3,3 4,7 3,8 3,4 3,7 3,0 42 23 61 33 WZW 1008,4 23 0 0,0
20.02.2017 07:00:00 4,8 3,3 4,5 3,7 3,4 3,7 3,0 44 24 60 32 WZW 1009,2 25 0 0,0
20.02.2017 06:00:00 4,4 3,4 4,2 3,6 3,4 3,7 3,0 43 23 56 30 WZW 1009,7 20 0 0,0
20.02.2017 05:00:00 4,0 3,2 3,7 3,7 3,4 3,7 3,0 41 22 60 32 WZW 1010,7 18 0 0,0
20.02.2017 04:00:00 4,0 3,3 3,8 3,7 3,4 3,7 3,0 48 26 63 34 W 1011,5 4,9 0 0,0
20.02.2017 03:00:00 4,2 3,6 4,0 3,8 3,4 3,7 3,0 42 23 55 30 WZW 1012,0 7 0 0,0
20.02.2017 02:00:00 4,2 3,9 4,1 3,9 3,3 3,7 3,0 42 23 55 30 W 1012,5 4,2 0 0,0
20.02.2017 01:00:00 4,1 3,9 4,1 3,9 3,3 3,7 3,0 40 21 54 29 W 1012,7 0,4 0 0,0
20.02.2017 00:00:00 4,2 4,0 4,2 3,8 3,3 3,7 3,0 39 21 51 28 W 1013,1 0,4 0 0,0
19.02.2017 23:00:00 4,2 4,0 4,2 3,8 3,3 3,7 3,0 41 22 51 28 W 1013,5 0,2 0 0,0
19.02.2017 22:00:00 4,2 4,1 4,1 3,8 3,2 3,7 3,0 33 18 52 28 WZW 1013,3 0,1 0 0,1
19.02.2017 21:00:00 4,1 3,9 4,1 3,7 3,2 3,7 3,0 39 21 51 27 W 1014,0 0,1 0 0,0
19.02.2017 20:00:00 3,9 3,7 3,9 3,7 3,2 3,7 3,0 37 20 52 28 W 1013,8 0,2 0 0,0
19.02.2017 19:00:00 4,0 3,8 4,0 3,7 3,2 3,7 3,0 41 22 50 27 W 1013,8 0,1 0 0,0
19.02.2017 18:00:00 3,7 3,4 3,7 3,7 3,2 3,6 3,0 37 20 50 27 WZW 1013,4 0,2 0 0,0
19.02.2017 17:00:00 3,9 3,4 3,8 3,9 3,2 3,6 3,0 36 19 50 27 WZW 1013,4 1,3 0 0,0
19.02.2017 16:00:00 3,6 2,9 3,7 4,1 3,1 3,6 3,0 34 18 53 29 WZW 1013,5 1,2 0 0,0
19.02.2017 15:00:00 4,0 3,1 4,2 4,2 3,0 3,6 3,0 40 22 54 29 WZW 1013,3 3,0 0 0,0
19.02.2017 14:00:00 4,1 3,1 4,1 4,1 2,9 3,6 3,0 39 21 50 27 WZW 1013,7 3,0 0 0,0
19.02.2017 13:00:00 3,7 2,8 3,8 3,9 2,7 3,6 3,0 33 18 44 24 WZW 1014,2 3,0 0 0,5
19.02.2017 12:00:00 3,8 2,6 3,7 3,7 2,6 3,6 3,0 33 18 44 24 WZW 1014,6 4,0 0 0,1
19.02.2017 11:00:00 3,5 2,3 3,5 3,5 2,5 3,6 3,0 33 18 46 25 WZW 1015,1 4,5 0 0,3
19.02.2017 10:00:00 3,2 2,3 3,1 2,8 2,5 3,6 2,9 34 18 48 26 WZW 1015,5 3,0 0 0,7
19.02.2017 09:00:00 3,1 1,9 2,8 2,4 2,5 3,6 2,9 36 19 46 25 WZW 1015,5 4,5 0 0,1
19.02.2017 08:00:00 3,5 1,2 3,2 2,2 2,5 3,6 2,9 37 20 52 28 WZW 1015,7 8 0 0,0
19.02.2017 07:00:00 3,2 1,0 2,7 2,1 2,5 3,6 2,9 36 20 48 26 WZW 1016,0 9 0 0,0
19.02.2017 06:00:00 3,1 1,1 2,8 2,2 2,5 3,6 2,8 33 18 45 25 WZW 1016,7 10 0 0,0
19.02.2017 05:00:00 3,4 1,2 3,0 2,4 2,5 3,6 2,8 39 21 49 26 WZW 1017,2 7 0 0,0
19.02.2017 04:00:00 3,3 1,4 2,9 2,3 2,6 3,6 2,8 37 20 49 26 WZW 1017,9 6 0 0,0
19.02.2017 03:00:00 2,7 1,2 2,5 2,2 2,6 3,5 2,8 35 19 46 25 ZW 1018,8 4,7 0 0,0
19.02.2017 02:00:00 2,5 0,9 2,2 2,2 2,6 3,5 2,8 36 19 46 25 ZW 1019,5 5 0 0,0
19.02.2017 01:00:00 2,5 1,0 2,4 2,4 2,7 3,5 2,8 34 19 42 23 ZW 1020,4 6 0 0,0
19.02.2017 00:00:00 2,5 1,0 2,4 2,4 2,7 3,5 2,8 31 17 42 23 WZW 1021,2 6 0 0,0
18.02.2017 23:00:00 2,4 0,9 2,3 2,5 2,7 3,5 2,8 29 16 48 26 WZW 1021,7 9 0 0,0
18.02.2017 22:00:00 2,5 1,4 2,4 2,6 2,8 3,5 2,8 29 16 43 23 WZW 1022,3 7 0 0,0
18.02.2017 21:00:00 2,7 1,7 2,5 2,7 2,8 3,5 2,9 26 14 39 21 WZW 1022,4 8 0 0,0
18.02.2017 20:00:00 2,7 1,8 2,6 2,7 2,9 3,5 2,9 34 18 42 23 W 1022,4 6 0 0,0
18.02.2017 19:00:00 2,6 1,8 2,5 2,8 2,9 3,5 3,0 25 14 39 21 W 1022,7 6 0 0,0
18.02.2017 18:00:00 3,1 1,3 3,0 3,0 2,9 3,5 2,9 32 18 43 23 W 1022,6 21 0 0,0
18.02.2017 17:00:00 3,0 1,6 2,9 3,3 2,9 3,5 2,9 34 18 45 24 W 1022,6 29 0 0,0
18.02.2017 16:00:00 3,6 1,6 3,6 3,8 2,9 3,5 2,8 32 17 45 25 W 1022,7 31 0 0,0
18.02.2017 15:00:00 3,6 1,9 3,9 4,1 2,8 3,5 2,8 29 16 40 22 W 1022,6 20 0 0,0
18.02.2017 14:00:00 3,9 1,5 4,3 3,8 2,7 3,5 3,0 26 14 35 19 W 1022,8 21 0 0,0
18.02.2017 13:00:00 2,8 1,5 3,1 3,4 2,6 3,5 3,0 30 16 40 21 W 1023,3 13 0 0,0
18.02.2017 12:00:00 2,7 1,7 2,8 3,3 2,6 3,5 2,9 23 13 30 16 W 1023,3 7 0 0,0
18.02.2017 11:00:00 2,6 2,0 2,6 3,1 2,5 3,5 3,0 22 12 26 14 W 1023,1 6 0 0,0
18.02.2017 10:00:00 2,6 2,1 2,8 2,9 2,5 3,5 2,9 16 9 23 12 W 1023,0 2,0 0 0,0
18.02.2017 09:00:00 3,0 1,9 2,9 2,8 2,5 3,5 2,9 17 9 29 16 WNW 1023,0 7 0 0,0
18.02.2017 08:00:00 3,4 1,7 3,0 2,7 2,5 3,4 3,0 24 13 34 18 W 1022,6 10 0 0,0
18.02.2017 07:00:00 3,4 2,0 3,1 2,7 2,5 3,4 3,0 25 14 31 17 W 1022,3 9 0 0,0
18.02.2017 06:00:00 3,2 2,4 3,0 2,8 2,5 3,4 3,0 18 10 25 13 W 1021,9 6 0 0,0
18.02.2017 05:00:00 3,5 2,7 3,2 2,8 2,5 3,4 2,9 18 10 25 13 WNW 1021,6 6 0 0,0
18.02.2017 04:00:00 3,2 2,5 3,0 2,8 2,5 3,4 2,9 16 8 21 12 WNW 1021,5 6 0 0,0
18.02.2017 03:00:00 3,1 2,5 3,0 2,8 2,5 3,4 3,0 14 8 22 12 WNW 1021,6 3,9 0 0,0
18.02.2017 02:00:00 3,0 2,5 2,9 2,8 2,5 3,4 3,0 16 8 22 12 W 1021,5 3,0 0 0,0
18.02.2017 01:00:00 3,0 2,5 2,9 2,9 2,5 3,4 3,0 16 9 19 10 WZW 1021,4 2,9 0 0,0
18.02.2017 00:00:00 3,4 2,7 3,2 3,0 2,5 3,4 3,1 14 8 25 13 W 1021,2 5 0 0,0
17.02.2017 23:00:00 3,9 2,7 3,6 3,0 2,5 3,4 3,1 15 8 29 16 W 1021,2 8 0 0,0
17.02.2017 22:00:00 3,9 2,9 3,5 3,0 2,5 3,4 3,0 18 10 24 13 W 1021,0 8 0 0,0
17.02.2017 21:00:00 4,0 3,3 3,6 3,0 2,5 3,4 3,0 17 9 28 15 W 1020,5 7 0 0,0
17.02.2017 20:00:00 3,1 2,8 3,0 3,2 2,5 3,4 2,9 18 10 28 15 W 1020,4 1,7 0 0,0
17.02.2017 19:00:00 4,1 3,9 3,9 3,2 2,5 3,4 2,8 23 12 29 16 W 1020,0 2,4 0 0,0
17.02.2017 18:00:00 3,1 3,0 3,1 3,3 2,5 3,4 2,8 15 8 20 11 W 1019,4 2,6 0 0,0
17.02.2017 17:00:00 3,1 3,1 3,2 3,6 2,4 3,4 2,8 13 7 21 11 W 1019,0 0,2 0 0,0
17.02.2017 16:00:00 2,6 2,5 2,9 4,0 2,3 3,4 2,7 16 9 20 11 W 1018,9 0,2 0 0,0
17.02.2017 15:00:00 2,8 2,7 3,3 4,4 2,1 3,4 2,8 17 9 23 12 WNW 1018,5 0,1 0 0,0
17.02.2017 14:00:00 3,1 3,0 3,8 4,6 1,9 3,4 2,8 18 10 22 12 W 1018,3 0,2 0 0,0
17.02.2017 13:00:00 3,7 3,7 4,5 4,2 1,6 3,4 2,8 10 5 23 12 WNW 1018,4 0,2 0 0,0
17.02.2017 12:00:00 3,7 3,6 4,4 3,7 1,4 3,4 2,8 14 8 25 14 WNW 1018,2 1,0 0 0,0
17.02.2017 11:00:00 3,4 3,4 3,7 2,8 1,2 3,4 2,8 20 11 27 14 W 1018,0 0,4 0 0,0
17.02.2017 10:00:00 3,0 3,0 - - - - 2,7 22 12 - - WZW 1017,7 0,5 - 0,0
17.02.2017 09:00:00 3,2 3,1 3,2 1,8 0,9 3,4 2,6 20 11 - - WZW 1017,6 0,8 0 0,0
17.02.2017 08:00:00 3,6 2,7 - - - - 2,4 18 10 - - ZW 1017,7 2,5 - 0,0
17.02.2017 07:00:00 3,5 1,4 - - - - 2,4 25 14 - - ZW 1017,5 5 - 0,0
17.02.2017 06:00:00 3,8 1,5 - - - - 2,4 22 12 - - WZW 1018,0 7 - 0,0
17.02.2017 05:00:00 - - - - - - 2,4 - - - - - - - - -
17.02.2017 04:00:00 - - - - - - 2,6 - - - - - - - - -
17.02.2017 03:00:00 - - - - - - 2,7 - - - - - - - - -
17.02.2017 02:00:00 - - - - - - 2,6 - - - - - - - - -
17.02.2017 01:00:00 - - - - - - 2,7 - - - - - - - - -
17.02.2017 00:00:00 - - - - - - 2,6 - - - - - - - - -
16.02.2017 23:00:00 - - - - - - 2,8 - - - - - - - - -
16.02.2017 22:00:00 - - - - - - 2,8 - - - - - - - - -
16.02.2017 21:00:00 - - - - - - 2,8 - - - - - - - - -
16.02.2017 20:00:00 - - - - - - 2,7 - - - - - - - - -
16.02.2017 19:00:00 - - - - - - 2,6 - - - - - - - - -
16.02.2017 18:00:00 - - - - - - 2,7 - - 59 32 - - - 0 0,0
16.02.2017 17:00:00 5,8 3,8 5,5 1,3 0,2 3,5 2,8 40 22 51 28 W 1023,6 7 0 0,0
16.02.2017 16:00:00 5,1 3,1 5,0 1,2 0,2 3,5 2,8 40 22 51 27 W 1023,9 4,9 0 0,0
16.02.2017 15:00:00 6,2 3,4 6,2 1,0 0,2 3,5 2,5 37 20 59 32 WZW 1024,0 8 22 0,0
16.02.2017 14:00:00 7,6 3,7 8,5 0,4 0,2 3,5 2,6 43 23 54 29 WZW 1024,1 7 59 0,0
16.02.2017 13:00:00 6,7 3,2 6,6 0,0 0,2 3,5 2,5 31 17 - - WZW 1024,9 8 - 0,0
16.02.2017 12:00:00 6,9 2,7 - - - - 2,6 29 16 - - WZW 1025,4 7 - 0,0
16.02.2017 11:00:00 5,2 0,8 - - - - 2,6 29 16 - - WZW 1026,0 6 - 0,0

tt = temperatuur
td = dauwpunt
tt 5cm = temperatuur 5cm
tt -5cm = temperatuur -5cm
tt -20cm = temperatuur -20cm
tt -100cm = temperatuur -100cm
tw = water temperatuur
ff = windsnelheid
fx = windstoten
dd = windrichting
ppp = luchtdruk
vv = zicht
sd = Zonneschijnduur
rr = neerslag

Weerstations in de omgeving